Wind_Speed
31 32 33 35 36 37 38 39 40 41 41 42 43 43 42 42 42 43 44 44 46 47 47 47 47 47 47 46 46 46 46 45 43 42 41 40 38 36 35 33 31 30
32 33 33 33 34 36 37 39 39 41 41 41 41 42 41 41 41 42 42 43 44 44 45 46 47 47 47 47 47 47 47 46 45 43 42 41 39 37 36 34 33 31
32 33 34 34 34 35 37 38 40 41 41 41 42 41 41 41 41 41 41 41 42 43 44 45 46 47 47 48 48 48 47 47 46 44 43 42 40 39 37 36 34 33
30 32 33 35 36 37 39 40 41 41 41 42 42 42 42 42 42 42 41 41 41 42 42 43 45 46 47 48 48 48 48 47 46 45 44 43 42 40 39 37 36 34
28 30 32 34 37 39 42 43 44 44 44 44 44 44 44 44 44 43 42 42 42 41 42 42 44 45 46 48 48 48 48 48 48 47 46 45 44 42 41 39 38 36
27 27 30 34 38 41 43 45 46 47 48 48 47 46 46 46 45 44 44 43 42 42 42 42 43 44 45 47 48 49 49 49 49 48 47 46 45 44 43 41 40 38
30 29 31 35 39 41 44 46 48 50 50 50 50 50 49 48 47 46 45 44 44 44 43 42 42 42 43 45 47 49 49 50 50 49 49 48 47 46 44 43 42 40
34 35 36 37 39 42 45 47 49 51 52 52 52 52 52 51 50 48 47 46 46 46 45 43 42 42 43 44 46 48 50 51 51 51 51 50 49 48 46 45 43 41
35 37 38 39 41 44 46 47 48 50 53 54 54 54 54 53 52 50 49 49 49 48 47 46 44 43 43 45 46 47 49 50 52 52 52 52 51 49 48 46 45 43
34 36 38 41 43 44 45 46 47 49 51 54 54 54 55 55 55 53 52 51 51 51 50 48 46 45 45 46 47 47 48 50 51 52 52 52 51 50 49 48 47 45
30 32 36 39 41 42 42 43 45 47 49 53 55 55 55 55 56 55 55 55 55 54 52 51 49 48 47 47 47 48 48 49 50 51 52 52 52 51 50 49 48 46
30 31 33 35 36 38 38 39 43 45 47 50 54 55 55 55 56 56 56 57 57 56 54 53 52 50 49 48 47 48 48 49 49 50 51 52 52 51 50 50 49 47
33 33 33 32 32 33 35 37 39 42 45 47 50 53 54 55 56 56 56 57 58 57 56 55 54 52 50 49 48 48 48 49 49 50 51 52 52 52 51 51 50 49
32 33 33 32 32 32 33 35 37 39 42 44 47 51 53 54 55 55 55 55 56 57 57 56 55 53 52 51 50 50 50 50 50 50 51 52 53 53 52 52 51 50
28 31 32 32 31 31 31 34 36 38 40 43 45 48 51 53 53 54 54 54 55 56 56 55 55 55 54 53 52 51 51 51 51 51 52 52 53 53 54 53 52 50
29 28 29 30 30 29 29 30 32 35 38 41 43 46 49 51 52 52 53 53 53 55 55 55 56 56 55 54 53 52 51 51 52 53 53 53 54 55 55 54 53 52
33 30 28 28 27 27 27 27 30 33 36 39 42 44 47 49 50 52 52 51 51 53 54 55 56 56 55 54 54 53 52 51 52 52 53 54 55 56 56 55 54 53
33 33 32 30 28 26 26 26 28 31 34 37 40 42 44 47 49 51 52 50 49 51 53 54 55 55 55 54 54 53 52 52 52 52 53 54 56 57 56 56 55 54
34 34 34 34 32 29 27 26 27 30 32 34 37 39 43 46 48 50 50 50 49 50 51 52 53 54 54 53 53 52 52 52 52 53 54 54 55 56 57 57 56 55
36 36 35 34 34 33 31 28 27 28 30 31 34 37 41 45 47 48 49 49 49 49 50 50 51 52 52 52 51 51 51 51 52 54 54 55 56 56 56 57 56 56
38 38 36 35 34 34 34 32 29 28 29 30 32 35 38 41 44 46 47 47 47 48 48 49 50 50 51 51 50 50 50 51 52 54 55 56 56 56 56 56 56 56
40 40 39 37 35 35 34 34 32 29 28 29 30 33 36 38 41 43 45 45 45 46 47 48 49 49 49 49 49 49 49 50 52 54 56 57 57 56 56 56 56 56
40 40 41 41 39 37 35 34 33 31 29 27 28 31 33 36 39 40 42 43 44 45 46 47 48 48 47 47 48 48 48 50 52 54 56 57 57 57 56 55 55 54
39 39 40 41 41 40 38 36 35 33 31 28 28 29 31 32 35 37 39 41 42 44 45 45 46 46 46 46 47 46 47 50 52 54 56 57 57 56 55 54 53 53
40 39 39 39 40 41 40 39 37 35 33 31 29 29 30 31 33 35 37 38 39 41 42 43 44 45 44 45 45 45 47 50 52 53 54 56 56 56 55 54 53 53
41 40 40 39 40 40 40 40 39 37 35 33 31 30 30 31 32 33 34 35 36 38 39 41 43 43 43 43 43 43 46 50 52 52 53 54 54 55 55 54 53 52
Wind_Direction
245 244 244 245 246 247 247 247 246 246 246 246 246 247 247 247 246 245 243 242 241 241 240 241 241 241 240 238 237 236 236 237 237 238 240 241 243 244 244 246 247 249
247 246 245 246 246 246 246 246 247 247 248 248 249 250 250 250 249 248 247 245 244 243 242 242 241 242 241 240 238 237 236 236 236 237 239 240 242 243 244 245 247 249
251 249 247 247 247 248 248 248 249 248 249 249 250 250 250 250 250 249 248 247 245 245 244 243 243 242 242 241 240 238 238 237 237 238 238 240 241 242 243 244 246 248
259 257 255 253 251 251 251 250 250 250 250 250 249 250 250 250 250 249 248 247 245 244 244 243 243 243 242 241 240 239 239 238 238 238 238 239 240 241 242 243 244 246
270 268 267 264 259 256 253 252 252 252 252 251 251 251 251 251 250 249 248 247 245 244 242 242 242 242 242 241 240 239 239 238 238 237 238 239 239 240 241 242 243 245
275 279 279 274 269 264 261 259 257 256 255 254 253 253 253 252 252 251 250 249 247 245 243 242 241 242 242 242 241 240 239 239 238 238 238 238 239 240 240 241 242 243
273 278 280 278 275 273 270 267 264 262 259 258 256 255 254 254 253 253 252 252 250 247 245 243 242 242 242 241 241 240 240 239 238 238 238 238 238 239 239 239 240 242
270 271 275 279 281 279 276 273 271 268 264 261 260 258 257 256 255 254 254 253 252 250 247 245 243 242 241 241 240 240 240 239 238 237 237 237 237 237 238 238 239 240
275 275 278 281 283 284 282 279 276 273 268 264 262 261 259 258 257 256 255 254 253 252 249 246 244 242 241 240 239 239 239 239 238 238 237 237 237 237 237 237 238 239
282 283 284 284 285 287 287 285 281 275 270 266 263 261 260 259 258 257 256 255 254 252 251 249 246 243 241 239 238 238 238 238 238 238 238 238 238 237 237 237 237 238
289 289 288 286 287 287 288 289 285 279 272 267 263 261 260 260 258 257 256 255 254 253 252 251 248 245 242 240 239 238 238 238 239 238 238 238 238 237 237 237 237 238
299 295 291 290 289 288 288 288 286 281 275 268 264 262 261 260 259 257 257 256 255 254 253 252 250 247 244 242 240 239 238 238 238 239 239 238 238 237 237 237 237 238
303 299 297 296 295 293 291 287 285 282 277 272 267 263 262 261 260 258 258 258 256 254 253 252 250 248 246 243 241 239 238 237 238 238 238 237 237 237 237 237 237 237
301 297 297 296 296 295 292 288 285 282 279 275 270 265 262 262 261 259 259 258 256 254 253 252 251 249 247 244 241 239 238 237 237 237 237 237 236 236 236 236 236 237
310 299 294 292 292 292 291 290 287 284 280 276 272 268 264 262 260 259 258 258 256 254 252 251 250 250 248 246 243 240 239 237 237 237 236 236 236 235 235 235 235 235
335 318 303 295 293 293 292 290 288 286 282 277 273 270 266 262 260 258 257 257 256 253 252 251 250 250 249 248 246 243 241 239 238 237 236 236 235 235 234 233 233 233
350 343 331 317 308 304 299 294 290 286 282 278 275 271 267 264 261 259 257 257 256 253 252 252 252 251 250 249 247 245 242 240 239 239 238 236 236 235 234 233 232 232
350 350 348 342 332 320 311 304 296 288 283 280 276 273 269 266 263 260 258 257 255 253 252 252 252 252 251 249 248 246 243 241 240 240 239 238 237 236 235 234 232 232
343 344 347 349 345 337 326 315 305 296 289 284 280 276 271 267 264 261 258 257 255 253 252 251 251 251 250 249 248 247 245 242 240 240 240 239 238 237 235 233 232 231
338 338 340 343 345 344 339 331 320 309 300 291 285 278 272 268 266 262 259 257 254 252 251 251 251 251 250 249 248 247 245 243 241 240 240 240 239 238 236 235 233 232
337 336 335 336 339 340 341 340 334 323 312 301 290 282 276 272 268 264 262 259 255 253 251 251 251 251 249 249 248 246 245 243 241 240 240 240 239 238 236 235 234 233
335 334 332 331 332 333 335 337 335 330 321 309 297 288 280 274 269 266 263 261 258 255 253 252 252 250 249 248 247 245 244 243 241 240 240 239 238 237 236 234 233 232
330 331 330 329 327 327 327 329 330 330 325 315 303 294 286 279 273 269 265 262 259 256 254 253 252 250 249 248 246 245 243 242 241 239 238 238 237 236 234 233 233 232
325 325 325 326 325 323 322 322 323 324 324 319 308 299 292 285 279 273 267 263 260 257 256 254 253 252 250 248 246 244 243 242 240 239 238 237 236 235 234 232 232 231
324 322 321 321 321 319 318 316 315 317 318 317 312 303 295 287 281 274 269 266 263 260 258 255 254 253 250 248 246 244 242 241 239 238 237 237 235 234 232 231 230 229
322 321 319 317 316 315 313 311 310 310 311 311 310 305 296 287 280 275 272 270 267 264 261 258 255 253 250 248 245 243 241 240 239 237 237 236 234 233 231 229 228 227
Height
1412 1413 1414 1416 1417 1419 1421 1422 1423 1425 1426 1429 1431 1433 1436 1440 1443 1445 1447 1449 1451 1453 1456 1458 1461 1463 1465 1468 1469 1471 1473 1475 1477 1479 1480 1481 1483 1484 1485 1486 1486 1487
1410 1411 1412 1413 1414 1415 1416 1418 1419 1421 1423 1425 1427 1430 1433 1435 1438 1440 1442 1445 1447 1449 1451 1454 1456 1458 1461 1463 1465 1467 1469 1470 1472 1474 1476 1478 1479 1480 1481 1482 1483 1484
1408 1409 1410 1410 1411 1412 1414 1415 1417 1418 1420 1422 1423 1426 1428 1430 1432 1435 1437 1440 1442 1444 1447 1449 1451 1453 1456 1458 1460 1462 1464 1466 1468 1470 1472 1474 1476 1477 1478 1479 1480 1481
1407 1408 1408 1409 1410 1411 1412 1413 1414 1415 1417 1418 1419 1421 1423 1425 1427 1429 1432 1434 1437 1439 1441 1443 1445 1448 1450 1453 1455 1458 1460 1462 1464 1466 1468 1470 1471 1473 1474 1476 1477 1477
1406 1407 1408 1408 1409 1409 1410 1410 1411 1412 1414 1414 1416 1417 1418 1420 1422 1424 1426 1429 1431 1434 1436 1438 1440 1442 1444 1447 1450 1452 1454 1457 1459 1461 1463 1465 1467 1468 1470 1472 1473 1474
1407 1407 1407 1407 1407 1408 1408 1408 1409 1410 1411 1412 1413 1414 1414 1415 1417 1419 1421 1423 1426 1428 1430 1432 1434 1436 1438 1441 1444 1446 1448 1451 1453 1456 1458 1460 1462 1464 1466 1467 1468 1470
1406 1407 1407 1406 1406 1406 1406 1406 1406 1407 1408 1409 1410 1410 1410 1411 1412 1413 1416 1418 1420 1422 1424 1426 1428 1430 1433 1435 1437 1440 1442 1445 1447 1450 1452 1454 1457 1459 1461 1463 1464 1465
1404 1404 1404 1404 1404 1403 1403 1403 1403 1403 1404 1405 1405 1405 1406 1407 1407 1409 1411 1413 1414 1416 1418 1420 1422 1424 1427 1429 1430 1433 1435 1438 1440 1443 1445 1448 1450 1453 1455 1458 1459 1461
1401 1401 1402 1401 1401 1400 1399 1399 1399 1399 1400 1400 1400 1401 1402 1402 1403 1404 1406 1407 1408 1410 1412 1414 1417 1419 1420 1421 1423 1425 1428 1430 1433 1435 1438 1440 1443 1446 1449 1452 1454 1457
1397 1398 1398 1398 1397 1397 1395 1394 1394 1394 1394 1394 1395 1396 1396 1397 1398 1400 1401 1401 1402 1403 1405 1408 1410 1412 1413 1414 1416 1418 1421 1423 1425 1428 1431 1433 1436 1440 1443 1446 1448 1451
1392 1393 1394 1393 1393 1393 1391 1390 1390 1389 1389 1388 1389 1390 1390 1392 1393 1393 1394 1394 1395 1397 1399 1401 1403 1406 1407 1409 1410 1413 1415 1417 1419 1422 1425 1427 1430 1433 1437 1439 1442 1445
1387 1388 1388 1388 1388 1387 1387 1386 1385 1384 1383 1383 1383 1384 1384 1385 1386 1387 1387 1387 1389 1391 1393 1395 1397 1400 1402 1403 1406 1408 1410 1412 1414 1417 1419 1422 1424 1427 1430 1433 1436 1439
1382 1382 1382 1382 1382 1382 1382 1381 1380 1379 1378 1377 1378 1378 1379 1380 1381 1382 1382 1382 1383 1385 1387 1390 1392 1394 1396 1398 1400 1402 1404 1406 1408 1411 1413 1415 1418 1421 1424 1427 1430 1434
1379 1378 1377 1376 1377 1377 1376 1376 1375 1374 1373 1373 1373 1372 1373 1374 1375 1377 1377 1377 1378 1379 1382 1385 1387 1388 1390 1392 1394 1396 1398 1400 1402 1404 1406 1409 1412 1415 1418 1421 1425 1428
1376 1374 1373 1372 1372 1371 1371 1371 1371 1370 1369 1368 1367 1367 1368 1369 1370 1371 1372 1373 1373 1374 1376 1379 1380 1382 1383 1385 1387 1390 1392 1394 1396 1398 1400 1403 1406 1408 1411 1415 1419 1422
1374 1372 1370 1368 1367 1367 1367 1367 1366 1366 1365 1363 1362 1362 1363 1364 1365 1366 1366 1366 1367 1369 1371 1372 1374 1375 1377 1379 1381 1384 1387 1389 1391 1393 1395 1397 1399 1402 1405 1408 1412 1416
1373 1371 1368 1366 1364 1362 1362 1361 1361 1360 1359 1358 1358 1358 1358 1359 1360 1360 1360 1359 1360 1362 1364 1366 1367 1369 1371 1374 1376 1378 1381 1384 1386 1388 1390 1392 1394 1396 1399 1402 1406 1409
1372 1370 1368 1365 1361 1358 1356 1356 1355 1354 1353 1353 1353 1353 1354 1354 1354 1355 1355 1355 1354 1355 1357 1359 1361 1364 1367 1369 1371 1373 1376 1379 1381 1383 1384 1386 1388 1390 1393 1396 1400 1403
1369 1367 1365 1362 1359 1355 1353 1351 1350 1349 1348 1348 1348 1349 1349 1349 1349 1350 1350 1350 1349 1348 1350 1352 1355 1358 1361 1363 1366 1368 1371 1374 1376 1377 1378 1380 1382 1384 1387 1390 1393 1397
1366 1363 1360 1358 1356 1353 1350 1348 1346 1345 1344 1343 1343 1344 1344 1345 1346 1346 1346 1345 1344 1344 1345 1347 1349 1352 1355 1358 1361 1363 1366 1369 1371 1373 1374 1375 1377 1379 1382 1385 1388 1392
1362 1360 1358 1356 1354 1352 1349 1346 1344 1342 1341 1340 1340 1340 1340 1341 1342 1342 1342 1341 1341 1341 1342 1342 1344 1347 1349 1352 1355 1358 1361 1364 1367 1368 1369 1370 1372 1374 1377 1380 1383 1386
1359 1357 1356 1354 1353 1350 1348 1346 1343 1341 1339 1338 1337 1336 1337 1337 1338 1338 1338 1338 1338 1338 1338 1338 1339 1342 1344 1347 1350 1353 1356 1359 1361 1362 1363 1365 1367 1369 1371 1374 1377 1382
1358 1356 1353 1351 1350 1348 1347 1345 1343 1340 1338 1336 1334 1333 1333 1333 1333 1334 1334 1334 1334 1334 1334 1335 1336 1337 1339 1341 1344 1347 1350 1352 1354 1356 1358 1360 1361 1363 1365 1368 1372 1377
1359 1356 1353 1350 1348 1346 1345 1343 1342 1340 1337 1334 1332 1330 1329 1329 1329 1330 1330 1330 1330 1330 1331 1332 1332 1333 1335 1336 1339 1342 1344 1346 1347 1350 1353 1355 1358 1360 1362 1364 1367 1371
1357 1355 1352 1350 1347 1345 1344 1342 1340 1339 1336 1333 1331 1328 1327 1326 1326 1326 1325 1325 1325 1326 1327 1328 1328 1329 1331 1332 1334 1338 1339 1339 1341 1344 1347 1349 1352 1355 1357 1359 1361 1365
1353 1352 1350 1348 1346 1344 1343 1341 1339 1337 1335 1332 1330 1327 1325 1324 1323 1322 1321 1320 1321 1321 1322 1323 1324 1325 1326 1328 1330 1333 1334 1334 1336 1339 1341 1344 1347 1349 1351 1354 1356 1359